Weather History for KAJZ - March, 2014

Change the Weather History Date:

Sunday, March 23, 2014

  Actual Average (KMTJ) Record (KMTJ)
Temperature  
Mean Temperature 46 °F 43 °F  
Max Temperature 63 °F 57 °F 74 °F (2012)
Min Temperature 28 °F 30 °F 19 °F (2008)
Degree Days  
Heating Degree Days 20 22  
Month to date heating degree days 573  
Since 1 July heating degree days 5288  
Cooling Degree Days 0 0  
Month to date cooling degree days 0  
Year to date cooling degree days 0  
Moisture  
Dew Point 14 °F    
Average Humidity 37    
Maximum Humidity 69    
Minimum Humidity 8    
Precipitation  
Precipitation 0.00 in 0.03 in 0.05 in (2005)
Month to date precipitation 0.73  
Year to date precipitation 1.96  
Sea Level Pressure  
Sea Level Pressure 30.17 in    
Wind  
Wind Speed 7 mph (NE)    
Max Wind Speed 21 mph    
Max Gust Speed 31 mph    
Visibility 10 miles    
Events      
T = Trace of Precipitation, MM = Missing Value Source: NWS Daily Summary

Daily Weather History Graph

Daily Weather History Graph

Search for Another Location

Airport or City:

Trip Planner

Search our weather history database for the weather conditions in past years. The results will help you decide how hot, cold, wet, or windy it might be!

Date:

Astronomy

Mar. 23, 2014 Rise Set
Actual Time 7:10 AM MDT 7:27 PM MDT
Civil Twilight 6:44 AM MDT 7:53 PM MDT
Nautical Twilight 6:13 AM MDT 8:25 PM MDT
Astronomical Twilight 5:41 AM MDT 8:56 PM MDT
Moon 1:44 AM MDT (3/23) 11:58 AM MDT (3/23)
Length of Visible Light 13h 09m
Length of Day
12h 16m
Waning Gibbous, 54% of the Moon is Illuminated
Mar 23
Waning Gibbous
Mar 23
Last Quarter
Mar 30
New
Apr 7
First Quarter
Apr 15
Full

Hourly Weather History & Observations

Time (MDT) Temp. Windchill Dew Point Humidity Pressure Visibility Wind Dir Wind Speed Gust Speed Precip Events Conditions
12:15 AM 36.5 °F 30.3 °F 22.6 °F 57% 30.22 in 10.0 mi NE 8.1 mph - N/A   Clear
12:35 AM 36.1 °F 30.6 °F 21.9 °F 56% 30.22 in 10.0 mi NE 6.9 mph - N/A   Clear
12:55 AM 35.2 °F 31.2 °F 21.6 °F 58% 30.22 in 10.0 mi NE 4.6 mph - N/A   Clear
1:15 AM 33.6 °F 30.6 °F 21.4 °F 61% 30.22 in 10.0 mi ENE 3.5 mph - N/A   Clear
1:35 AM 33.8 °F 27.0 °F 20.3 °F 58% 30.21 in 10.0 mi NE 8.1 mph - N/A   Clear
1:55 AM 34.5 °F 29.4 °F 20.3 °F 56% 30.22 in 10.0 mi ENE 5.8 mph - N/A   Clear
2:15 AM 33.4 °F 28.1 °F 20.5 °F 59% 30.22 in 10.0 mi ENE 5.8 mph - N/A   Clear
2:35 AM 32.5 °F 26.2 °F 20.5 °F 61% 30.22 in 10.0 mi ENE 6.9 mph - N/A   Clear
2:55 AM 32.9 °F 27.5 °F 21.4 °F 63% 30.22 in 10.0 mi ENE 5.8 mph - N/A   Clear
3:15 AM 32.9 °F 25.9 °F 21.2 °F 62% 30.22 in 10.0 mi ENE 8.1 mph - N/A   Clear
3:35 AM 32.9 °F 25.3 °F 22.1 °F 65% 30.22 in 10.0 mi ENE 9.2 mph - N/A   Clear
3:55 AM 32.0 °F 24.8 °F 22.1 °F 67% 30.22 in 10.0 mi East 8.1 mph - N/A   Clear
4:15 AM 31.6 °F 25.1 °F 22.1 °F 68% 30.22 in 10.0 mi ENE 6.9 mph - N/A   Clear
4:35 AM 31.8 °F 23.9 °F 21.0 °F 64% 30.22 in 10.0 mi NE 9.2 mph - N/A   Clear
4:55 AM 32.0 °F 23.6 °F 21.0 °F 64% 30.22 in 10.0 mi NE 10.4 mph - N/A   Clear
5:15 AM 32.0 °F 23.6 °F 21.4 °F 65% 30.22 in 10.0 mi ENE 10.4 mph - N/A   Clear
5:35 AM 32.0 °F 24.2 °F 21.2 °F 64% 30.23 in 10.0 mi East 9.2 mph - N/A   Clear
5:55 AM 30.9 °F 24.3 °F 21.0 °F 67% 30.23 in 10.0 mi NE 6.9 mph - N/A   Clear
6:15 AM 30.6 °F 23.1 °F 20.1 °F 65% 30.23 in 10.0 mi NE 8.1 mph - N/A   Clear
6:35 AM 30.2 °F 22.6 °F 19.9 °F 66% 30.24 in 10.0 mi NE 8.1 mph - N/A   Clear
6:55 AM 28.9 °F 21.1 °F 19.9 °F 69% 30.24 in 10.0 mi NE 8.1 mph - N/A   Clear
7:15 AM 30.0 °F 23.2 °F 19.4 °F 65% 30.25 in 10.0 mi ENE 6.9 mph - N/A   Clear
7:35 AM 29.7 °F 23.7 °F 19.0 °F 65% 30.25 in 10.0 mi East 5.8 mph - N/A   Clear
7:55 AM 29.1 °F 24.1 °F 19.0 °F 66% 30.26 in 10.0 mi ENE 4.6 mph - N/A   Clear
8:15 AM 31.8 °F 27.3 °F 19.6 °F 61% 30.27 in 10.0 mi East 4.6 mph - N/A   Clear
8:35 AM 33.4 °F 26.6 °F 19.8 °F 57% 30.27 in 10.0 mi ENE 8.1 mph - N/A   Clear
8:55 AM 34.3 °F 31.4 °F 20.5 °F 57% 30.27 in 10.0 mi ENE 3.5 mph - N/A   Clear
9:15 AM 36.5 °F 33.9 °F 20.3 °F 52% 30.27 in 10.0 mi East 3.5 mph - N/A   Clear
9:35 AM 38.5 °F - 20.3 °F 48% 30.26 in 10.0 mi Calm Calm - N/A   Clear
9:55 AM 40.1 °F 38.0 °F 20.3 °F 45% 30.26 in 10.0 mi NE 3.5 mph - N/A   Clear
10:15 AM 42.8 °F 38.6 °F 20.3 °F 41% 30.25 in 10.0 mi ENE 6.9 mph - N/A   Clear
10:35 AM 45.3 °F - 21.2 °F 38% 30.24 in 10.0 mi Calm Calm - N/A   Clear
10:55 AM 45.9 °F 44.6 °F 19.6 °F 35% 30.24 in 10.0 mi ESE 3.5 mph - N/A   Clear
11:15 AM 46.9 °F - 19.4 °F 34% 30.23 in 10.0 mi Calm Calm - N/A   Clear
11:35 AM 49.3 °F - 20.7 °F 32% 30.22 in 10.0 mi NE 3.5 mph - N/A   Clear
11:55 AM 51.3 °F - 19.9 °F 29% 30.21 in 10.0 mi East 5.8 mph - N/A   Clear
12:15 PM 52.3 °F - 18.7 °F 27% 30.20 in 10.0 mi Calm Calm - N/A   Clear
12:35 PM 53.4 °F - 18.3 °F 25% 30.19 in 10.0 mi Calm Calm - N/A   Clear
12:55 PM 54.5 °F - 16.0 °F 22% 30.17 in 10.0 mi Calm Calm - N/A   Clear
1:15 PM 56.5 °F - 15.8 °F 20% 30.16 in 10.0 mi SE 3.5 mph - N/A   Clear
1:35 PM 57.0 °F - 12.9 °F 18% 30.15 in 10.0 mi Calm Calm - N/A   Clear
1:55 PM 58.3 °F - 13.3 °F 17% 30.13 in 10.0 mi South 5.8 mph - N/A   Clear
2:15 PM 59.0 °F - 14.5 °F 18% 30.12 in 10.0 mi SSE 4.6 mph - N/A   Clear
2:35 PM 59.7 °F - 13.6 °F 16% 30.11 in 10.0 mi South 5.8 mph - N/A   Clear
2:55 PM 60.6 °F - 11.7 °F 15% 30.09 in 10.0 mi West 6.9 mph - N/A   Clear
3:15 PM 61.3 °F - 11.5 °F 14% 30.08 in 10.0 mi West 5.8 mph - N/A   Clear
3:35 PM 61.7 °F - 12.2 °F 14% 30.08 in 10.0 mi WNW 4.6 mph - N/A   Clear
3:55 PM 62.1 °F - 12.0 °F 14% 30.07 in 10.0 mi SW 8.1 mph - N/A   Clear
4:15 PM 63.1 °F - 12.4 °F 14% 30.06 in 10.0 mi West 9.2 mph 16.1 mph N/A   Clear
4:35 PM 62.8 °F - 11.3 °F 13% 30.05 in 10.0 mi West 15.0 mph 18.4 mph N/A   Clear
4:55 PM 63.0 °F - 10.9 °F 13% 30.05 in 10.0 mi WNW 15.0 mph 20.7 mph N/A   Clear
5:15 PM 62.4 °F - 9.1 °F 12% 30.05 in 10.0 mi West 15.0 mph 26.5 mph N/A   Clear
5:35 PM 61.7 °F - 6.1 °F 11% 30.05 in 10.0 mi WNW 19.6 mph 31.1 mph N/A   Clear
5:55 PM 61.7 °F - 1.8 °F 9% 30.05 in 10.0 mi WNW 18.4 mph 27.6 mph N/A   Clear
6:15 PM 60.6 °F - -2.6 °F 8% 30.05 in 10.0 mi West 19.6 mph 28.8 mph N/A   Clear
6:35 PM 59.7 °F - -0.4 °F 9% 30.06 in 10.0 mi West 19.6 mph 26.5 mph N/A   Clear
6:55 PM 58.3 °F - -0.8 °F 9% 30.07 in 7.0 mi West 20.7 mph 29.9 mph N/A   Clear
7:15 PM 57.6 °F - -1.1 °F 9% 30.07 in 10.0 mi West 17.3 mph 23.0 mph N/A   Clear
7:35 PM 55.9 °F - -0.0 °F 10% 30.07 in 10.0 mi West 13.8 mph 18.4 mph N/A   Clear
7:55 PM 55.6 °F - 0.1 °F 11% 30.09 in 10.0 mi West 9.2 mph - N/A   Clear
8:15 PM 53.8 °F - 0.7 °F 11% 30.09 in 10.0 mi SW 5.8 mph - N/A   Clear
8:35 PM 51.6 °F - 0.9 °F 13% 30.10 in 10.0 mi Calm Calm - N/A   Clear
8:55 PM 48.7 °F - 2.1 °F 15% 30.11 in 10.0 mi Calm Calm - N/A   Clear
9:15 PM 49.1 °F - 1.8 °F 14% 30.12 in 10.0 mi Calm Calm - N/A   Clear
9:35 PM 44.6 °F - 8.6 °F 23% 30.12 in 10.0 mi Calm Calm - N/A   Clear
9:55 PM 43.3 °F 40.7 °F 5.5 °F 21% 30.12 in 10.0 mi NE 4.6 mph - N/A   Clear
10:15 PM 41.4 °F 38.4 °F 7.0 °F 24% 30.13 in 10.0 mi NNW 4.6 mph - N/A   Clear
10:35 PM 43.7 °F 42.1 °F 6.4 °F 22% 30.13 in 10.0 mi NE 3.5 mph - N/A   Clear
10:55 PM 41.7 °F 38.8 °F 6.1 °F 23% 30.13 in 10.0 mi NNE 4.6 mph - N/A   Clear
11:15 PM 41.7 °F - 6.6 °F 24% 30.13 in 10.0 mi Calm Calm - N/A   Clear
11:35 PM 38.3 °F 33.9 °F 5.7 °F 26% 30.14 in 10.0 mi NE 5.8 mph - N/A   Clear
11:55 PM 37.8 °F 33.3 °F 5.2 °F 26% 30.14 in 10.0 mi NE 5.8 mph - N/A   Clear